Location: Chuathbaluk
(61.5726°N, 159.2454°W)
Time: 14:39:41
(UTC+00:00)

SR - Pass Details

Date: 03 December 2020
Orbit: 575 x 880 km, 66.7° (Epoch: 17 January)

Event Time Altitude Azimuth Distance (km) Brightness Sun altitude
Rises 06:24:52 0° 246° (WSW) 2,906 ? -33.3°
Reaches altitude 10° 06:27:03 10° 248° (WSW) 2,038 ? -33.5°
Enters shadow 06:28:46 23° 253° (WSW) 1,394 ? -33.7°
